Regional Weather Roundup
Issued by NWS Little Rock, AR

Home | Current Version | Previous Version | Graphics & Text | Print | Product List | Glossary On
Versions: 1 2 3 4 5 6 7 8 9 10 11 12 13 14 15 16 17 18 19 20 21 22 23 24 25 26 27 28 29 30 31 32 33 34 35 36 37 38 39 40 41 42 43 44 45 46 47 48 49 50
000
ASUS44 KLZK 050105
RWRLZK

WEATHER ROUNDUP FOR ARKANSAS
NATIONAL WEATHER SERVICE LITTLE ROCK AR
700 PM CST WED MAR 04 2015

NOTE: "FAIR" INDICATES FEW OR NO CLOUDS BELOW 12,000 FEET WITH NO
SIGNIFICANT WEATHER AND/OR OBSTRUCTIONS TO VISIBILITY.

ARZ001-003-010-029-050200-
NORTHWEST ARKANSAS

CITY           SKY/WX    TMP DP  RH WIND       PRES   REMARKS
FAYETTEVILLE   LGT SNOW  21  19  92 N9G17     30.26R FOG     WCI  11
FORT SMITH     MIX PCPN  29  23  78 N8        30.25R WCI  21
HARRISON       LGT SNOW  20  18  92 N8        30.25R FOG     WCI  10
BENTONVILLE    CLOUDY    21  16  79 N16       30.27R WCI   7
ROGERS         FLURRIES  21  16  81 N9        30.28R WCI  11
SILOAM SPGS    CLOUDY    21  12  68 N14       30.28R WCI   8
HIGHFILL       CLOUDY    22  17  81 N15       30.27R WCI   9
SPRINGDALE     CLOUDY    21  18  86 N13G23    30.27R FOG     WCI   9
$$

ARZ004-005-016-050200-
NORTH CENTRAL ARKANSAS

CITY           SKY/WX    TMP DP  RH WIND       PRES   REMARKS
BATESVILLE     CLOUDY    25  19  80 NW10G16   30.25R WCI  15
FLIPPIN        CLOUDY    21  16  79 CALM      30.29R
MTN HOME       LGT SNOW  20  17  88 N9        30.27R FOG     WCI   9
$$

ARZ040-041-050200-
WEST CENTRAL ARKANSAS

CITY           SKY/WX    TMP DP  RH WIND       PRES   REMARKS
MENA           CLOUDY    34  32  93 CALM      30.12R
MOUNT IDA      RAIN      33  31  92 VRB5      30.13R FOG     WCI  29
$$

ARZ009-017-025-026-028-050200-
NORTHEAST ARKANSAS

CITY           SKY/WX    TMP DP  RH WIND       PRES   REMARKS
CORNING        SNOW      23  21  93 N17       30.25F VSB 1/2 WCI   9
JONESBORO      LGT SNOW  25  22  88 N20       30.21S FOG     WCI  11
NEWPORT        FLURRIES  27  25  92 N22G30    30.23R WCI  13
WALNUT RIDGE   CLOUDY    23  18  80 N16G23    30.26R VSB 3/4 WCI  10
BLYTHEVILLE    CLOUDY    25  22  88 N28       30.23R BLWGSNOWWCI   9
$$

ARZ022-023-033-042-044-050200-
CENTRAL ARKANSAS

CITY           SKY/WX    TMP DP  RH WIND       PRES   REMARKS
LITTLE ROCK    LGTSLEET  32  30  92 N14       30.17R FOG     WCI  22
N LITTLE ROCK  CLOUDY    30  30 100 N17G25    30.17R WCI  18
JACKSONVILLE   LGTSLEET  30  28  92 N14       30.17R WCI  19
SEARCY         LGT SNOW  28  26  92 N15         N/A  FOG     WCI  16
HOT SPRINGS    RAIN      33  30  88 NE7       30.15R FOG     WCI  27
RUSSELLVILLE   MIX PCPN  27  23  85 N12       30.22R FOG     WCI  17
CLINTON        LGT SNOW  25  23  93 CALM      30.25R VSB 3/4
$$

ARZ036-050200-
EAST ARKANSAS

CITY           SKY/WX    TMP DP  RH WIND       PRES   REMARKS
WEST MEMPHIS   LGT SNOW  29  28  96 N22G33    30.14F FOG     WCI  15
$$

ARZ050-053-066-070-073-050200-
SOUTHWEST ARKANSAS

CITY           SKY/WX    TMP DP  RH WIND       PRES   REMARKS
CAMDEN         HVY RAIN  37  34  87 MISG      30.07R
TEXARKANA      TSTM      38  36  92 NE16G29   30.06R FOG
EL DORADO      LGT RAIN  39  36  89 NE18G28   30.03R
DE QUEEN       CLOUDY    37  34  89 N9G20     30.08R
$$

ARZ056-057-069-050200-
SOUTHEAST ARKANSAS

CITY           SKY/WX    TMP DP  RH WIND       PRES   REMARKS
PINE BLUFF     HVY RAIN  33  30  88 NE18G31   30.10S FOG     WCI  22
STUTTGART      CLOUDY    32  28  86 N23G35    30.12R WCI  19
MONTICELLO     LGT RAIN  35  32  88 NE15G23   30.05R WCI  25

$$





USA.gov is the U.S. government's official web portal to all federal, state and local government web resources and services.